Location: Nebel
(54.6502°N, 8.3475°E)
Time: 07:55:24
(UTC+01:00)

Envisat - Visible Passes

Search period start: 02 December 2022 00:00
Search period end: 12 December 2022 00:00
Orbit: 763 x 765 km, 98.2° (Epoch: 01 December)

Date Brightness Start Highest point End Pass type
(mag) Time Alt. Az. Time Alt. Az. Time Alt. Az.
02 Dec 4.4 04:17:17 10° NNE 04:20:50 35° ENE 04:20:50 35° ENE visible
02 Dec 3.4 05:56:26 10° N 06:01:00 38° WNW 06:01:00 38° WNW visible
02 Dec 5.9 17:20:46 10° WSW 17:23:33 15° W 17:26:21 10° NW visible
03 Dec 5.3 03:40:46 10° NE 03:43:13 20° ENE 03:43:13 20° ENE visible
03 Dec 3.2 05:19:13 10° NNE 05:23:23 56° NNW 05:23:23 56° NNW visible
03 Dec 4.4 06:59:25 10° NNW 07:02:29 16° NW 07:03:34 15° WNW visible
03 Dec 5.3 16:41:47 10° SSW 16:46:04 27° W 16:50:24 10° NW visible
04 Dec 6.0 03:05:19 10° ENE 03:05:38 11° ENE 03:05:38 11° ENE visible
04 Dec 3.9 04:42:12 10° NNE 04:45:48 44° NE 04:45:48 44° NE visible
04 Dec 3.9 06:21:45 10° N 06:25:57 27° WNW 06:25:58 27° WNW visible
05 Dec 4.9 04:05:26 10° NNE 04:08:12 26° NE 04:08:12 26° NE visible
05 Dec 3.4 05:44:23 10° N 05:48:23 42° NW 05:48:23 42° NW visible
05 Dec 4.8 07:25:24 10° NNW 07:27:07 12° NW 07:28:33 10° WNW visible
05 Dec 5.7 17:08:01 10° SW 17:11:25 18° W 17:14:51 10° NW visible
06 Dec 5.7 03:29:07 10° NE 03:30:38 15° ENE 03:30:38 15° ENE visible
06 Dec 3.6 05:07:14 10° NNE 05:10:48 46° N 05:10:48 46° N visible
06 Dec 4.3 06:47:11 10° N 06:50:41 19° NW 06:50:58 19° NW visible
07 Dec 4.4 04:30:17 10° NNE 04:33:14 33° NE 04:33:14 33° NE visible
07 Dec 3.8 06:09:39 10° N 06:13:24 30° NW 06:13:24 30° NW visible
07 Dec 6.1 17:35:18 10° W 17:36:53 11° W 17:38:27 10° WNW visible
08 Dec 5.3 03:53:37 10° NNE 03:55:39 20° NE 03:55:39 20° NE visible
08 Dec 3.6 05:32:21 10° N 05:35:50 40° NNW 05:35:50 40° NNW visible
08 Dec 4.6 07:12:54 10° NNW 07:15:21 14° NW 07:16:01 13° NW visible
08 Dec 5.6 16:55:26 10° SW 16:59:19 22° W 17:03:13 10° NW visible
09 Dec 5.9 03:17:34 10° NE 03:18:05 11° NE 03:18:05 11° NE visible
09 Dec 4.1 04:55:16 10° NNE 04:58:16 36° NNE 04:58:16 36° NNE visible
09 Dec 4.2 06:35:02 10° N 06:38:27 22° NW 06:38:27 22° NW visible
10 Dec 4.9 04:18:23 10° NNE 04:20:43 25° NE 04:20:43 25° NE visible
10 Dec 3.9 05:57:34 10° N 06:00:54 32° NNW 06:00:54 32° NNW visible
10 Dec 5.9 17:22:05 10° WSW 17:24:43 14° W 17:27:22 10° NW visible
11 Dec 5.6 03:41:51 10° NE 03:43:11 16° NE 03:43:11 16° NE visible
11 Dec 3.9 05:20:21 10° NNE 05:23:21 35° N 05:23:21 35° N visible
11 Dec 4.5 07:00:35 10° NNW 07:03:31 16° NW 07:03:31 16° NW visible
11 Dec 5.3 16:42:59 10° SSW 16:47:13 26° W 16:51:29 10° NW visible
